Location: Hohe Wand Wildgehege
(47.8330°N, 16.0440°E)
Time: 13:42:51
(UTC+01:00)

ISS - Pass Details

Date: 30 October 2019
Orbit: 412 x 421 km, 51.6° (Epoch: 13 November)

Event Time Altitude Azimuth Distance (km) Brightness Sun altitude
Exits shadow 04:12:04 35° 100° (E) 696 -2.2 -24.7°
Drops below altitude 10° 04:14:23 10° 73° (ENE) 1,508 0.1 -24.3°
Sets 04:16:31 0° 68° (ENE) 2,374 1.3 -24.0°
